GFSFLT2_sfc_thetae_000.txt.gz
Theta_e
318 328 335 346 348 345 342 342 342 339 338 337 336 334 333 332 333 333 333 333 335 336 337 339 339 339 340 341 343 348 348 350
315 326 333 344 345 344 342 341 342 340 340 337 334 334 333 333 333 333 333 333 333 335 337 337 339 342 343 345 343 347 350 349
321 323 326 337 343 345 341 341 339 338 338 336 336 336 334 333 333 333 334 333 332 333 336 336 339 342 344 346 344 347 347 348
311 313 314 313 320 327 329 331 332 332 333 333 333 334 333 333 333 333 333 332 332 333 335 336 338 339 342 344 343 347 347 347
306 307 307 312 315 316 317 327 329 329 329 330 332 332 332 332 333 333 333 332 332 333 335 336 337 339 340 343 345 346 346 347
310 310 310 314 315 316 317 319 323 325 328 328 326 327 326 322 323 327 330 332 332 333 335 336 337 339 340 341 342 343 345 342
308 311 312 313 314 315 318 316 315 318 319 320 321 319 322 320 321 323 328 331 331 333 335 335 337 339 339 337 339 342 339 341
309 312 311 312 314 314 314 315 314 316 320 322 321 319 323 324 321 322 324 325 326 329 329 333 335 334 333 336 336 339 339 339
309 311 312 313 313 313 314 314 314 318 321 321 319 320 319 320 320 318 319 321 323 324 326 328 328 331 333 333 336 337 338 338
309 311 311 314 314 314 314 315 315 318 320 320 317 317 318 317 317 318 319 321 322 324 325 326 329 330 331 333 336 336 336 337
311 311 312 313 315 314 313 314 315 316 316 319 316 316 318 317 317 318 319 320 321 323 325 326 328 330 332 334 335 336 335 338
310 312 311 315 315 314 313 314 315 316 316 316 317 318 319 319 318 321 320 319 321 323 325 326 328 330 332 332 334 334 335 337
310 312 311 315 316 315 314 315 316 318 318 318 318 318 320 321 321 320 319 319 321 324 325 326 329 329 330 331 332 332 334 336
311 312 312 312 315 315 315 316 318 318 319 320 321 321 322 325 325 321 322 324 325 326 326 327 328 328 328 330 330 331 332 333
312 311 312 311 314 314 316 317 318 318 319 320 320 322 324 325 324 325 324 326 326 326 326 326 327 328 329 329 329 329 330 331
314 312 311 310 311 311 314 314 315 316 318 318 321 323 324 325 324 326 326 325 328 326 327 327 327 327 327 330 326 326 328 329
311 313 312 311 312 312 313 314 315 316 320 320 322 323 325 326 326 326 327 327 327 327 327 327 326 325 327 328 324 323 318 322
309 310 314 312 310 309 313 316 317 319 321 322 322 322 324 327 327 326 327 327 326 327 326 326 327 327 324 327 327 323 317 316
310 312 312 312 311 312 312 317 316 316 317 320 322 323 324 325 327 327 326 326 326 327 325 326 327 327 326 322 325 327 326 324

GFSFLT2_sfc_thetae_003.txt.gz
Theta_e
323 330 337 343 349 351 347 345 345 343 342 341 339 338 338 336 335 335 335 336 336 337 339 339 341 342 341 342 343 347 351 351
322 333 337 341 347 347 346 345 343 342 341 340 337 339 337 337 335 335 335 335 335 335 336 339 340 342 344 345 343 346 350 349
323 335 338 339 343 344 343 344 341 338 336 337 337 336 338 337 335 335 335 335 335 334 334 337 340 339 344 346 344 346 348 349
322 323 328 329 328 327 329 331 331 332 333 333 333 334 335 335 335 335 335 335 335 334 334 335 339 340 340 343 344 346 347 348
317 318 321 322 324 327 327 327 328 329 330 330 331 331 333 333 333 334 335 334 334 334 334 335 338 339 339 341 342 345 347 348
319 321 323 323 325 325 325 325 326 327 328 328 328 328 329 331 331 332 332 333 333 334 335 335 337 339 339 340 341 344 346 350
319 321 323 323 323 325 324 326 327 326 326 326 327 327 328 330 329 326 330 332 332 334 334 335 336 337 339 340 338 342 346 348
320 322 322 323 323 325 324 326 326 325 322 323 324 326 327 328 330 327 327 329 335 333 334 335 336 339 340 339 339 341 347 347
320 321 322 322 324 326 325 326 327 324 325 325 324 327 326 325 327 324 326 329 332 334 333 334 337 340 340 340 340 342 344 346
320 321 322 323 325 326 327 326 327 327 325 326 324 326 323 325 325 325 325 328 329 329 331 333 336 336 337 338 339 343 342 345
321 322 323 325 326 327 326 327 328 328 327 324 323 327 328 327 328 327 325 325 327 329 332 336 337 336 335 337 338 342 341 345
322 323 323 325 328 327 327 327 328 329 328 327 328 329 328 329 328 328 329 328 328 332 334 335 334 335 334 338 336 340 343 343
323 323 324 325 328 328 328 328 328 330 329 329 330 331 330 331 330 330 329 331 330 331 332 332 330 330 332 334 334 338 342 343
323 323 323 325 327 328 329 329 329 331 330 330 331 331 331 332 332 331 329 330 332 330 331 332 332 331 331 333 333 339 339 341
324 323 323 324 325 325 327 329 329 332 330 331 331 330 330 333 331 332 330 328 329 330 330 331 332 332 333 333 334 333 334 336
325 325 324 325 326 325 326 325 326 326 326 330 329 325 326 329 329 332 332 332 332 327 329 332 332 332 333 336 329 328 329 331
322 323 326 323 324 322 324 327 323 327 328 328 328 329 329 327 329 330 330 329 331 330 330 332 333 332 332 335 326 324 319 323
320 320 324 325 324 323 325 328 329 330 328 326 326 325 325 327 328 331 330 332 332 333 332 333 335 332 326 332 335 328 319 316
321 321 321 323 325 323 327 330 329 327 324 326 327 329 330 328 328 328 328 328 328 331 333 333 336 332 329 326 333 330 329 328

GFSFLT2_sfc_thetae_006.txt.gz
Theta_e
325 326 334 338 345 350 351 348 349 345 344 342 340 341 339 339 338 338 336 336 337 338 339 340 340 341 341 343 343 345 349 351
324 327 329 340 343 347 348 346 346 343 343 339 338 338 339 340 338 337 337 336 336 336 337 338 340 340 342 345 345 344 348 349
325 331 332 337 341 339 341 340 337 336 336 336 336 336 336 336 337 336 336 336 336 336 336 336 338 340 340 344 347 344 347 348
326 325 327 329 330 332 328 328 330 330 331 333 333 333 334 334 335 336 336 336 336 335 335 335 335 339 339 341 345 344 347 349
322 322 325 328 327 330 331 329 329 330 330 330 331 332 333 333 334 335 336 335 335 335 335 335 335 338 339 339 343 344 347 348
322 323 326 326 329 331 330 329 329 330 329 329 329 329 330 332 332 334 334 334 335 334 334 335 335 337 338 338 341 343 346 350
320 322 323 329 330 330 329 332 333 331 328 327 328 328 329 330 333 330 330 331 334 334 334 334 335 337 338 340 337 340 343 348
322 322 322 329 331 331 330 331 330 329 329 329 328 330 328 328 333 332 329 329 332 333 333 334 334 336 337 339 336 333 337 348
320 321 326 329 331 333 332 330 329 329 330 328 331 329 331 329 329 330 330 328 332 332 334 336 333 336 339 340 336 335 339 347
319 326 329 330 333 333 332 331 330 330 330 330 330 330 332 329 330 328 328 329 330 332 334 335 334 336 339 339 337 337 340 346
320 327 328 331 334 334 333 333 332 332 332 331 330 330 333 331 331 331 328 330 334 331 331 333 333 335 337 336 335 337 342 344
323 328 328 330 333 334 334 333 333 332 332 331 330 332 332 333 334 332 330 327 329 335 335 334 336 337 336 335 335 337 342 345
325 324 328 330 332 334 335 334 333 335 334 334 334 333 333 334 334 334 334 334 336 335 334 331 332 332 332 333 333 334 343 345
323 324 327 330 332 333 334 334 335 336 334 336 335 335 333 334 334 336 336 336 337 334 334 332 330 332 330 332 332 335 343 344
323 325 327 331 333 333 333 333 335 336 337 336 331 327 332 335 333 336 337 336 336 332 334 334 334 332 332 332 331 337 341 343
322 324 328 328 332 329 330 330 332 331 329 334 331 328 327 332 333 333 333 334 334 333 334 335 335 333 332 334 332 332 337 340
319 322 328 328 329 328 331 334 333 331 331 326 327 327 329 330 333 333 335 333 334 330 334 334 335 331 334 337 328 329 321 326
320 321 324 327 329 331 336 338 336 335 332 333 329 329 329 330 332 333 333 333 333 333 332 336 336 334 330 335 334 327 319 318
321 324 324 327 331 332 336 332 333 332 328 330 334 334 330 333 329 330 334 334 335 333 338 337 341 336 335 330 335 332 334 330

GFSFLT2_sfc_thetae_009.txt.gz
Theta_e
326 327 340 343 342 346 351 351 350 347 346 342 340 342 341 340 342 340 339 339 338 337 339 340 341 341 342 343 345 344 345 349
325 327 329 342 341 343 346 346 344 342 341 340 340 339 340 340 340 339 338 338 339 338 336 338 340 341 341 343 346 344 344 348
326 329 330 339 341 340 336 334 334 335 335 335 336 336 336 336 336 336 337 338 338 337 337 337 337 338 340 340 345 346 344 348
327 326 328 329 335 335 335 331 328 330 331 332 333 333 333 334 335 335 336 338 338 338 337 336 336 336 338 339 341 345 344 348
325 325 327 328 326 329 331 334 329 330 331 331 332 332 332 333 334 335 335 336 337 337 336 335 336 335 337 338 340 344 344 347
324 325 327 325 329 332 332 333 330 334 333 332 331 331 331 331 333 333 335 336 336 337 336 335 336 336 337 338 339 341 344 344
322 324 324 326 332 334 331 333 333 332 333 332 331 331 330 331 332 332 331 332 334 336 335 334 335 336 336 336 337 340 338 343
324 325 324 330 334 334 332 331 331 332 331 331 330 331 331 329 331 335 333 330 333 334 333 332 333 333 331 335 337 335 332 342
323 323 328 332 334 336 334 331 331 331 332 330 331 334 331 330 334 332 331 331 334 333 335 337 332 333 334 339 338 336 331 342
323 324 330 334 336 336 335 333 333 332 330 332 331 332 332 333 333 330 330 332 331 331 334 337 333 333 336 336 339 336 332 342
322 327 331 333 335 335 334 336 334 336 333 333 331 330 333 332 333 331 333 331 333 335 332 337 335 333 333 338 337 336 336 343
323 329 330 332 332 334 336 335 336 337 338 334 334 334 332 335 335 334 334 334 336 339 338 339 332 334 335 336 336 336 336 343
325 325 329 330 331 334 335 335 335 337 337 337 333 332 334 334 334 335 333 334 336 338 334 331 330 330 333 333 332 332 337 343
325 326 327 331 331 334 336 335 337 338 339 338 334 332 332 335 334 336 337 335 336 339 333 331 331 333 334 331 331 334 339 343
325 329 328 331 334 334 334 334 338 337 337 338 332 328 329 334 334 336 338 336 337 336 333 334 335 336 331 330 328 336 340 344
325 329 329 328 333 332 331 331 337 337 332 334 335 330 331 333 333 335 338 337 337 335 335 337 334 334 332 332 333 336 338 341
325 327 328 328 331 333 335 335 334 335 334 331 334 334 332 332 333 334 335 332 334 332 335 335 337 329 328 335 328 328 323 329
323 327 328 328 332 336 338 338 337 337 336 335 334 332 333 332 333 334 334 333 333 334 333 338 335 333 329 336 335 329 320 319
323 328 329 330 333 335 337 334 334 334 332 337 335 336 334 334 333 334 334 334 335 333 336 336 340 337 335 329 334 339 335 330

GFSFLT2_sfc_thetae_015.txt.gz
Theta_e
327 341 350 353 354 355 353 353 353 351 349 347 344 344 341 340 344 343 340 340 340 341 341 340 339 338 339 342 343 346 346 344
330 340 347 353 352 350 347 347 348 344 342 340 340 340 340 340 339 340 340 340 340 340 340 340 340 340 341 341 341 343 346 343
327 331 336 347 347 347 348 348 346 342 338 336 336 335 335 337 337 338 338 338 338 338 338 339 340 341 341 339 340 341 344 343
323 328 330 334 340 348 347 346 342 337 334 334 333 333 333 334 334 335 335 336 336 337 337 339 340 340 341 340 339 340 342 343
318 318 320 328 331 331 333 342 338 335 335 335 334 334 334 333 333 333 334 334 336 337 337 339 339 338 340 339 340 339 341 343
317 315 316 319 322 325 326 331 338 338 337 336 335 335 331 325 325 328 331 334 337 337 337 338 338 338 339 338 338 339 340 336
316 318 319 322 324 326 330 327 328 328 329 328 327 325 323 323 323 328 330 334 335 336 337 337 338 337 336 328 329 337 333 334
316 318 320 322 326 325 325 326 325 325 325 325 325 325 324 325 323 323 324 325 325 332 329 333 332 330 329 326 325 330 332 332
315 319 324 326 325 326 327 325 324 325 324 323 325 326 324 323 323 323 324 323 324 325 325 326 326 326 326 326 324 330 332 329
315 319 323 324 325 328 327 325 325 325 325 325 325 325 326 324 323 322 323 323 322 323 325 324 325 326 325 325 325 331 329 330
315 320 322 324 326 326 325 324 326 327 327 326 325 326 327 327 322 322 322 322 322 322 324 324 325 326 325 323 326 331 331 333
315 321 322 322 324 324 324 326 327 327 328 327 326 327 326 327 323 322 323 323 322 322 323 324 324 325 325 327 327 329 330 333
318 320 322 326 322 325 325 326 327 327 327 327 327 326 326 328 325 323 323 324 323 322 322 323 323 324 326 326 325 324 329 331
318 319 321 323 323 325 324 326 326 328 327 327 327 324 324 326 327 324 323 324 323 323 321 323 322 323 322 323 324 324 328 328
320 321 322 322 323 324 324 326 326 327 327 327 326 324 324 323 326 325 324 323 323 321 321 321 321 322 322 321 327 327 329 328
319 321 322 322 321 322 324 323 323 322 325 327 328 327 325 325 326 324 324 323 324 320 320 321 320 322 321 321 320 321 325 330
317 319 323 321 322 324 325 326 326 326 327 326 326 328 328 327 326 325 325 323 323 322 323 321 320 318 319 322 319 319 318 323
317 319 321 322 324 326 326 326 325 325 325 324 324 326 325 329 327 326 325 323 323 323 322 321 320 319 318 322 322 321 317 315
318 319 322 324 325 328 326 324 322 320 319 323 325 326 325 329 327 327 325 324 323 322 322 323 323 320 320 319 321 326 322 322

GFSFLT2_sfc_thetae_021.txt.gz
Theta_e
331 337 344 353 353 354 353 353 352 349 347 347 347 347 344 343 343 343 341 341 341 341 340 340 339 341 340 339 341 342 343 343
331 336 342 353 354 354 354 352 351 350 350 349 347 346 344 343 342 341 340 340 340 340 339 339 339 340 341 341 342 342 342 343
333 335 341 352 353 353 353 352 352 351 351 350 347 345 343 342 341 340 339 339 338 339 339 339 340 342 342 341 341 341 342 343
333 337 341 346 350 353 353 352 352 352 350 347 344 342 339 336 336 336 336 336 337 337 338 338 338 340 341 340 340 340 340 342
331 335 334 335 339 339 341 350 350 349 346 344 340 337 335 335 335 336 335 334 336 335 335 336 337 339 340 340 340 340 340 341
321 321 324 327 331 332 333 337 345 343 341 339 336 336 335 328 327 330 331 332 334 335 337 337 336 338 339 337 338 339 339 332
313 314 321 323 324 324 327 324 326 329 329 328 329 327 326 324 322 325 328 332 333 334 336 336 336 337 337 329 331 337 330 331
312 313 317 319 319 320 323 322 322 323 321 322 325 325 322 321 320 322 320 321 322 327 325 328 329 329 329 327 326 326 328 330
312 315 318 319 320 320 321 321 320 321 321 321 323 323 320 319 319 319 319 320 320 321 321 322 324 325 326 326 325 324 326 329
312 315 317 320 320 321 322 321 320 320 322 321 321 321 321 320 319 319 320 320 319 318 319 320 322 324 325 324 324 323 324 327
314 316 320 320 321 322 321 320 320 320 321 322 322 322 323 321 320 320 322 319 318 319 318 320 321 321 322 322 322 323 324 327
317 320 320 320 322 322 320 320 319 321 323 322 323 323 323 322 320 320 319 318 318 319 319 318 320 320 319 321 321 322 324 326
318 318 319 324 321 319 320 320 322 322 322 322 323 324 325 325 322 319 318 317 319 319 318 317 318 318 319 319 319 320 322 325
318 317 319 319 319 320 319 319 320 321 322 323 323 323 324 325 324 319 319 319 320 319 317 317 316 317 317 321 320 320 320 323
317 318 318 318 320 319 318 320 320 320 322 323 323 323 324 324 324 320 320 320 320 317 316 316 316 318 321 322 322 319 319 321
317 317 316 318 318 317 319 318 319 319 320 321 322 323 327 325 322 319 319 320 319 317 316 317 316 317 320 319 319 315 321 320
316 316 317 317 318 319 320 319 320 320 320 321 321 322 325 326 324 322 321 319 318 316 316 316 316 315 319 321 315 313 311 315
315 317 317 317 319 322 321 320 319 318 319 319 319 320 322 324 327 324 322 320 317 316 315 315 317 317 316 316 317 314 310 308
315 318 317 319 321 321 321 319 316 315 314 316 317 318 319 323 326 324 322 320 318 317 316 316 318 318 317 315 317 322 318 321

GFSFLT2_sfc_thetae_024.txt.gz
Theta_e
331 337 344 353 353 353 353 352 351 349 348 346 345 345 345 344 343 343 342 341 340 340 341 340 340 339 341 341 340 341 342 343
330 335 341 352 353 353 353 352 352 351 350 349 346 346 346 344 343 342 342 342 341 340 341 339 339 341 342 342 342 343 340 343
329 333 338 351 353 353 353 353 352 351 350 350 348 349 347 346 343 342 341 340 340 339 339 340 340 342 342 342 341 343 340 342
330 333 336 344 350 353 353 352 352 351 351 351 351 349 346 342 339 338 337 337 337 337 338 339 339 340 341 341 340 341 341 341
329 332 334 339 345 343 346 353 352 352 351 351 347 344 342 338 337 336 337 336 336 336 336 337 336 338 340 340 340 339 340 340
325 329 331 334 337 337 338 343 351 348 346 345 342 341 338 330 330 333 334 335 333 334 335 336 336 338 339 339 338 338 340 336
320 320 326 328 331 331 334 331 332 333 331 331 331 329 330 329 327 329 331 334 332 333 334 335 336 337 336 333 333 338 336 334
319 318 321 324 325 325 323 322 322 324 325 325 327 327 326 325 324 325 325 325 325 328 327 328 328 331 332 331 331 332 332 333
311 315 317 320 320 320 321 321 322 322 322 321 323 325 323 321 321 321 321 322 322 323 323 324 326 329 330 330 330 330 329 331
309 312 316 318 318 319 320 321 320 320 322 322 322 323 322 321 320 321 321 322 322 322 321 322 324 326 327 328 328 327 328 328
310 313 316 318 319 320 321 321 320 320 321 322 322 322 324 322 321 321 321 322 321 321 322 321 323 325 326 327 326 327 327 328
311 315 318 318 320 321 321 321 320 320 322 322 323 324 324 323 322 322 321 321 321 322 322 321 322 324 324 324 325 325 326 327
315 317 318 323 321 321 320 320 320 321 322 322 323 324 325 325 324 322 321 320 321 321 321 321 321 321 322 323 324 324 325 327
317 317 319 321 320 320 319 319 320 322 322 323 324 324 325 326 326 322 321 321 321 321 320 320 319 321 320 321 323 324 324 326
318 319 319 319 319 319 319 319 320 321 322 323 324 324 326 326 326 322 321 322 322 320 319 319 319 321 322 323 325 322 324 326
318 318 317 318 318 317 318 319 319 320 321 322 323 325 325 327 325 322 321 322 322 320 319 319 320 321 321 323 319 320 322 323
318 317 317 318 317 318 320 319 321 321 321 322 323 324 326 327 325 322 320 322 321 319 318 319 320 319 321 322 318 318 316 320
315 316 316 317 318 321 321 320 320 319 319 320 321 322 323 325 326 326 324 322 321 319 318 318 320 321 319 321 321 319 314 312
315 317 317 318 320 321 321 319 317 316 315 318 319 320 321 323 326 326 324 323 320 319 318 319 320 321 322 318 322 324 322 323

GFSFLT2_sfc_thetae_027.txt.gz
Theta_e
335 341 347 353 353 353 352 352 351 350 349 347 345 345 344 343 346 346 344 343 341 340 340 340 343 341 340 340 342 340 340 343
335 339 344 353 354 353 353 352 352 351 350 349 348 346 346 347 345 345 343 342 342 341 340 340 341 343 344 343 342 342 340 341
337 340 344 351 354 353 353 353 352 351 351 350 349 349 348 348 346 344 343 342 341 341 341 340 341 342 342 343 343 342 341 340
340 340 345 347 352 353 353 352 352 352 351 351 350 350 350 348 346 342 339 338 338 338 338 339 339 340 341 340 340 341 341 341
338 340 343 347 348 348 349 353 353 352 352 351 350 350 350 345 341 338 339 337 337 336 337 337 338 340 340 340 340 339 340 341
334 338 340 341 346 347 347 348 353 351 351 351 348 347 344 339 337 337 337 337 336 335 335 335 336 337 339 339 338 338 339 338
332 335 338 341 344 346 345 348 348 346 344 345 343 342 340 339 339 336 336 335 335 334 334 335 335 337 337 338 335 338 336 337
331 334 336 341 344 345 343 344 342 341 341 340 342 342 340 337 338 337 336 335 335 333 333 333 333 333 333 336 335 336 336 337
328 332 335 340 342 344 341 338 336 334 335 335 337 339 338 336 336 335 333 333 334 332 333 333 332 333 335 336 336 336 336 336
326 328 331 337 340 339 337 334 334 334 333 335 335 336 335 334 335 335 334 332 332 332 331 331 331 332 333 336 336 335 336 336
326 325 330 334 337 335 334 336 335 336 335 334 334 334 336 334 334 333 332 332 332 333 332 331 330 331 332 334 334 336 335 336
325 325 328 332 334 334 334 335 336 334 334 333 334 336 336 336 336 335 333 333 333 333 333 332 332 332 332 333 333 334 335 335
324 324 328 328 331 333 335 335 334 334 334 334 335 336 337 337 337 335 333 333 332 333 332 330 330 328 330 331 332 333 333 333
324 327 327 330 330 333 335 334 335 335 334 335 335 336 337 337 336 335 334 331 333 331 330 330 330 329 329 330 331 332 333 332
325 329 330 331 333 334 333 333 334 334 334 335 335 336 336 336 335 335 332 333 332 330 329 329 330 329 330 331 330 330 333 335
326 328 330 331 333 332 330 330 331 331 334 334 335 336 335 335 335 334 332 331 330 329 330 330 328 327 329 331 327 324 326 329
325 327 329 332 332 332 332 333 335 336 335 334 335 335 335 335 336 334 331 327 330 329 330 328 328 326 328 329 326 327 319 326
325 327 330 331 332 332 335 334 334 334 332 332 333 333 335 333 334 333 330 329 330 331 328 328 328 329 326 328 331 326 317 318
325 329 331 331 332 334 335 334 333 329 328 331 331 332 332 332 332 333 333 332 332 330 330 328 329 330 330 326 327 332 332 329

GFSFLT2_sfc_thetae_030.txt.gz
Theta_e
339 341 348 354 353 353 353 353 352 351 349 347 344 344 343 343 345 346 343 344 343 341 341 340 340 341 343 340 340 342 340 340
339 340 346 354 354 354 353 353 353 352 351 350 347 346 345 346 348 346 345 344 343 343 343 342 341 342 342 342 341 342 342 340
338 342 347 353 354 353 354 353 352 352 351 350 350 349 349 349 349 346 345 344 343 342 342 341 341 343 342 342 341 343 341 341
340 341 347 351 354 354 353 353 352 351 351 351 351 350 350 349 348 346 344 341 339 339 339 339 340 341 341 340 340 340 341 341
340 340 342 349 348 350 350 354 353 353 352 352 352 351 350 349 347 343 342 339 338 337 337 337 338 339 340 341 341 339 340 340
335 340 341 343 346 348 347 348 353 352 352 352 350 349 349 343 341 341 342 338 337 336 336 336 336 336 338 339 338 338 339 337
332 336 339 344 346 347 343 347 352 347 347 346 345 346 345 342 341 339 339 336 337 336 336 335 335 336 337 338 337 338 336 336
332 335 337 345 347 347 344 345 346 345 344 344 346 346 344 340 340 339 339 337 339 338 336 335 335 335 334 334 336 334 336 334
330 334 338 342 347 349 344 344 344 341 341 340 339 343 342 339 340 339 337 336 339 336 336 335 332 335 335 335 337 336 335 335
330 333 338 342 347 349 349 344 342 339 336 338 337 340 341 338 339 339 338 337 337 334 333 334 332 333 334 335 335 335 334 335
333 334 338 341 347 348 349 347 341 340 338 337 336 338 342 340 340 338 337 336 335 336 335 337 332 332 332 333 334 336 334 336
334 336 337 340 345 347 346 343 340 338 338 335 336 341 341 342 341 340 338 336 337 338 339 338 335 334 332 333 335 336 336 337
335 335 337 336 342 345 344 341 338 337 337 336 338 340 342 342 342 341 338 335 338 337 337 337 334 331 329 334 333 333 335 335
335 336 334 337 339 342 342 340 340 341 337 337 339 339 341 341 341 340 338 337 339 335 335 335 333 331 333 332 331 332 335 333
333 335 335 336 339 341 339 339 337 336 336 338 338 339 341 341 340 338 338 338 338 334 334 334 331 333 331 332 332 333 333 331
332 333 335 336 340 337 335 333 332 331 334 337 338 340 340 340 338 339 339 336 335 333 333 332 334 331 331 334 332 330 332 336
332 334 335 337 339 338 335 336 334 334 336 337 339 339 340 339 337 337 336 335 334 330 332 332 332 332 330 334 329 328 319 328
331 334 335 338 339 339 339 337 338 338 337 334 335 336 337 338 338 338 334 335 331 332 332 334 333 330 329 333 333 328 319 315
331 334 336 338 339 338 339 337 336 331 329 335 333 338 336 337 336 336 335 333 334 335 334 334 334 332 333 330 330 330 332 327

GFSFLT2_sfc_thetae_033.txt.gz
Theta_e
337 343 353 353 353 353 354 353 352 351 349 347 345 345 344 343 344 344 343 343 343 344 342 342 341 341 341 343 342 341 343 340
337 340 350 354 354 353 354 353 353 352 351 350 348 346 345 345 346 346 345 345 345 344 344 343 343 343 344 343 342 343 342 343
337 340 345 355 353 353 353 353 353 352 352 351 350 349 349 348 348 347 347 346 345 343 343 342 342 342 342 341 341 341 341 341
338 339 341 354 354 354 353 353 352 352 352 351 351 350 350 349 349 348 347 345 343 341 339 339 340 340 341 340 340 341 341 341
339 338 340 347 353 352 349 354 353 353 352 352 351 351 350 349 348 348 346 344 341 338 338 337 337 338 339 341 340 340 340 341
335 339 340 339 345 349 346 348 353 352 351 351 350 349 349 343 342 345 345 345 341 339 337 337 336 336 337 338 339 339 339 335
332 336 339 341 345 346 343 350 352 347 346 345 345 345 347 347 343 340 343 338 339 339 338 337 337 336 336 334 333 340 336 334
330 333 337 351 353 348 344 344 348 347 345 347 347 352 351 343 340 340 340 339 339 340 338 337 336 336 336 332 333 335 337 335
327 333 336 343 353 355 346 342 345 345 346 343 344 350 348 341 342 342 339 339 344 338 339 342 335 339 339 335 335 336 336 336
327 330 335 345 353 355 357 346 347 348 342 344 341 343 342 339 343 341 341 339 339 339 336 335 336 335 336 334 332 332 334 337
333 334 337 346 356 352 353 358 352 352 343 339 338 339 343 342 345 339 340 340 339 341 338 341 338 333 332 333 335 334 337 337
335 339 340 350 354 356 354 354 351 344 341 338 338 342 341 344 344 343 338 338 338 346 341 341 337 339 334 333 335 338 336 336
341 341 342 337 345 352 355 352 346 341 340 337 338 339 343 344 344 342 339 338 339 342 342 338 335 334 332 337 338 337 335 337
340 340 340 344 342 348 353 348 347 350 340 338 338 338 342 343 342 342 341 340 343 341 338 337 334 337 332 334 334 335 335 336
337 341 343 342 348 351 347 347 340 338 339 337 337 338 341 341 341 341 340 341 342 339 338 336 335 334 333 332 332 332 334 335
336 340 341 340 349 346 340 336 336 334 336 335 338 340 341 340 341 342 340 340 340 338 336 336 336 333 334 335 332 332 333 336
336 338 339 339 344 344 340 342 337 337 334 337 338 341 341 340 342 340 340 339 339 338 336 333 335 332 333 335 328 330 322 324
335 337 338 340 342 345 346 342 340 339 339 335 335 336 339 339 339 340 338 338 338 338 334 335 336 331 330 332 334 330 323 317
335 337 340 341 341 341 343 343 343 333 330 333 336 334 338 337 337 337 338 337 336 335 338 334 337 334 333 329 335 331 332 329

GFSFLT2_sfc_thetae_036.txt.gz
Theta_e
343 348 351 352 352 353 353 352 351 350 350 349 347 347 346 344 345 345 343 342 342 343 343 343 342 342 342 344 346 344 343 343
336 345 352 352 353 353 353 353 352 351 350 349 349 348 347 346 346 346 345 344 344 345 344 344 344 343 343 344 343 342 344 342
338 343 353 353 352 353 353 353 352 351 350 350 350 349 348 348 348 348 347 347 347 345 343 343 342 344 342 342 343 344 343 341
340 341 354 352 352 353 353 352 352 351 351 351 350 350 350 350 349 349 349 347 347 345 343 340 339 340 342 343 342 342 342 341
338 337 352 353 350 350 350 353 353 352 352 352 352 351 351 350 349 349 348 349 347 345 341 339 338 338 341 342 342 342 342 342
332 338 341 351 352 350 347 350 354 353 352 352 352 351 349 344 341 344 345 347 346 345 341 340 338 338 338 338 339 340 341 336
327 330 337 340 348 350 345 346 350 349 348 348 345 345 345 343 344 343 344 349 345 345 341 340 339 339 336 332 330 339 335 334
329 329 335 342 346 347 343 344 350 348 346 344 344 345 347 346 346 343 339 340 340 342 337 339 337 335 334 333 330 334 335 334
327 334 334 344 349 346 345 345 349 348 345 343 344 348 347 347 345 343 340 343 338 338 338 339 335 335 335 337 333 331 334 334
331 335 337 346 346 350 351 345 346 347 346 345 347 348 347 344 342 344 343 342 341 340 339 336 336 335 335 333 330 331 332 334
336 339 342 348 349 350 346 353 350 352 350 348 346 346 346 344 344 343 344 341 340 342 340 338 336 335 334 333 330 332 333 334
337 345 348 350 352 351 352 350 359 352 351 346 344 348 346 345 345 346 343 341 339 341 340 338 337 336 334 333 331 331 333 333
342 345 349 338 352 352 353 352 350 351 348 348 344 346 345 347 346 345 341 339 340 341 340 336 335 333 332 332 330 330 331 333
345 347 347 348 350 351 354 353 352 353 344 344 346 344 345 344 344 342 340 341 342 339 337 336 334 333 331 330 331 331 332 332
342 346 353 350 351 351 351 353 349 346 345 346 344 343 346 345 344 341 340 341 340 338 336 333 333 333 331 327 331 330 331 332
343 346 350 349 351 349 347 343 341 338 341 341 343 344 344 344 342 342 340 340 338 336 333 333 332 330 328 330 327 326 328 330
342 345 346 346 351 348 346 344 341 340 338 339 341 344 344 343 343 340 340 338 336 335 333 332 331 328 328 331 324 323 318 322
339 341 342 345 347 346 346 345 349 345 346 342 340 340 342 341 341 341 339 337 336 335 332 331 331 329 326 329 328 322 316 313
337 340 341 345 344 345 348 345 344 339 335 338 340 338 340 341 339 339 338 336 336 335 333 333 333 330 329 323 327 328 327 323

GFSFLT2_sfc_thetae_042.txt.gz
Theta_e
334 338 346 352 352 352 352 351 349 349 348 347 345 345 344 342 343 344 341 341 341 341 342 343 343 342 342 342 344 344 344 343
333 334 342 352 352 352 352 351 350 350 348 348 348 347 346 345 345 343 342 342 342 343 343 344 344 344 344 344 344 345 343 342
333 332 338 350 351 351 352 351 350 349 349 349 348 348 348 347 347 345 344 343 343 344 345 345 344 346 344 342 343 343 342 342
336 332 336 341 347 352 351 351 350 349 348 348 348 348 348 348 349 348 347 345 345 346 346 346 346 345 343 342 342 342 342 341
338 334 337 338 341 344 345 352 351 349 349 348 349 349 349 349 349 348 347 348 347 347 347 347 346 345 343 342 342 342 342 342
334 335 338 338 337 340 342 346 350 351 350 349 348 349 347 342 342 344 347 347 347 348 348 348 347 344 343 340 339 339 340 333
328 336 338 339 338 338 340 341 344 344 343 343 343 342 343 339 338 343 345 348 348 349 350 348 346 344 340 331 330 336 330 331
315 334 339 339 339 338 337 339 343 342 341 342 341 340 341 339 337 338 335 338 340 347 341 343 339 337 332 330 328 325 326 330
314 326 339 339 339 338 338 338 340 340 340 340 341 340 339 337 333 331 334 332 334 336 336 332 332 331 330 330 328 326 325 328
313 315 336 339 338 339 337 338 339 339 339 340 340 338 338 336 332 333 332 329 331 331 331 329 329 329 329 329 329 329 328 330
314 316 317 337 339 339 338 336 339 339 338 337 337 337 337 336 335 333 331 328 329 329 330 329 330 328 328 327 327 328 325 326
318 318 316 327 337 339 338 336 339 339 339 337 336 336 337 336 335 333 331 331 329 329 329 332 328 327 328 328 327 327 326 328
315 316 317 331 332 336 336 335 339 340 339 337 336 337 338 338 335 332 330 329 329 328 329 327 326 325 326 323 323 323 324 326
317 316 319 332 333 333 333 337 337 336 337 332 335 337 338 336 334 331 330 329 329 328 327 326 325 323 322 322 323 323 323 323
317 316 323 333 333 335 337 336 334 331 329 330 332 335 335 334 334 330 330 329 328 326 325 325 324 324 323 322 325 324 321 323
325 326 329 334 335 338 337 334 329 326 327 328 329 332 333 332 332 330 329 328 327 326 325 324 323 323 323 324 321 319 320 323
326 329 333 334 335 336 334 331 330 328 326 327 328 329 333 333 332 330 329 327 327 326 326 325 322 322 322 323 316 315 312 312
328 329 333 334 335 335 334 331 328 327 327 326 325 325 328 332 331 330 328 326 326 327 325 323 323 321 317 318 318 314 308 306
326 328 333 335 334 334 332 329 327 324 322 323 324 325 329 331 330 330 328 328 328 325 323 322 323 320 318 315 317 321 316 313

GFSFLT2_sfc_thetae_045.txt.gz
Theta_e
335 339 345 352 352 352 352 351 349 348 347 345 343 343 342 340 342 342 339 339 339 340 340 341 341 341 341 341 341 340 340 343
333 335 340 352 352 352 352 351 349 349 348 347 346 344 343 344 343 342 340 340 341 342 342 343 343 343 344 343 343 344 341 343
331 332 335 350 351 351 352 351 349 349 348 347 347 347 346 346 345 343 342 342 343 343 344 344 344 344 345 343 342 343 342 342
330 330 332 342 348 352 351 350 350 349 348 348 348 347 347 347 347 345 344 343 343 344 344 345 344 345 345 342 341 341 342 342
330 327 329 337 341 343 344 351 350 350 349 348 348 348 347 348 348 346 346 346 344 344 345 346 346 346 345 343 341 340 340 341
334 329 327 333 336 339 340 344 350 350 350 349 348 348 346 341 341 342 345 345 345 345 346 347 348 347 345 341 340 339 339 332
329 332 332 334 332 335 338 337 343 342 342 342 342 341 341 338 337 341 343 346 346 346 348 349 349 346 342 332 331 336 330 330
325 331 336 335 334 332 334 335 339 341 339 340 339 338 339 338 337 338 336 338 338 345 340 343 342 339 333 331 328 326 326 326
312 322 335 337 335 333 333 333 335 337 337 337 338 337 337 336 333 332 334 332 331 335 338 336 333 333 331 331 328 327 325 325
311 314 329 336 336 335 333 332 334 336 336 335 337 338 337 335 332 331 330 329 330 331 335 331 330 330 328 328 329 328 327 327
315 313 320 335 336 336 335 333 334 335 336 335 337 338 337 334 331 330 330 329 328 329 330 330 330 329 326 327 327 327 327 325
315 315 313 332 335 335 335 334 334 335 336 335 336 336 336 334 331 330 329 327 329 327 327 328 330 328 328 327 328 328 328 328
313 314 315 328 334 335 335 335 334 336 336 335 334 335 335 334 333 330 329 328 328 326 327 327 326 327 324 326 324 322 323 325
314 314 313 317 327 334 334 332 333 334 336 335 334 334 334 335 334 331 329 328 327 326 325 325 325 324 321 322 322 322 322 322
313 314 313 318 326 328 329 330 331 332 331 333 333 335 336 336 334 331 330 328 326 325 324 323 322 323 322 321 323 323 323 323
313 315 315 323 328 332 332 330 327 328 326 326 331 335 334 334 332 329 328 327 326 325 325 324 322 323 322 323 321 320 321 321
316 321 321 327 331 331 332 327 326 325 324 326 327 332 333 333 334 332 327 326 325 324 323 324 324 321 321 323 318 316 311 315
320 324 327 329 331 332 330 328 325 325 324 323 323 325 329 334 333 329 328 326 325 326 324 323 323 321 316 320 317 314 309 306
321 327 330 331 332 332 330 328 327 322 321 321 323 324 326 329 329 329 328 326 325 324 323 321 322 318 316 313 317 318 313 311

GFSFLT2_sfc_thetae_048.txt.gz
Theta_e
336 342 346 352 351 352 352 351 350 349 347 346 345 344 343 341 343 343 340 339 338 339 339 339 340 340 340 339 340 339 339 341
334 338 342 352 352 352 353 351 350 349 348 347 347 345 344 344 343 342 340 339 340 340 341 342 342 343 343 342 342 343 341 341
333 335 338 352 352 351 352 352 351 349 348 347 347 346 345 345 345 342 341 341 341 341 342 343 343 344 345 342 342 342 343 343
330 331 332 344 348 352 352 351 350 349 348 348 347 346 346 346 346 345 344 342 343 344 344 344 345 346 345 343 342 340 340 342
326 328 328 336 342 344 346 352 351 350 349 348 348 348 347 347 347 346 345 346 344 344 345 345 346 347 346 345 342 340 339 339
332 325 325 329 337 340 342 345 351 350 350 349 349 348 345 341 342 342 344 345 344 344 345 347 348 348 347 344 341 340 339 335
328 331 325 327 333 335 338 338 343 343 342 343 343 342 341 338 339 341 343 345 344 345 347 348 349 348 345 338 336 338 335 333
328 330 331 328 330 332 334 334 336 341 340 341 339 338 339 338 339 341 338 340 341 345 341 344 346 345 340 335 334 332 331 330
316 323 331 332 330 330 331 332 333 337 337 337 338 338 338 337 335 336 336 335 336 338 339 340 339 339 337 335 333 331 330 329
313 316 317 332 333 332 330 331 331 332 336 335 336 337 337 336 333 333 334 333 332 333 336 337 336 336 335 334 333 331 331 330
313 313 314 328 334 334 331 330 330 331 334 333 334 336 337 335 333 332 331 330 329 331 333 335 334 334 333 332 331 331 331 331
314 315 314 320 332 333 333 332 330 331 334 333 334 336 336 335 332 331 329 328 329 330 332 332 332 332 330 330 329 331 331 331
313 313 315 317 329 333 334 334 333 332 334 334 334 336 337 335 333 331 329 329 330 329 330 330 330 329 329 329 328 329 330 329
313 313 313 314 326 331 333 333 331 332 333 333 333 335 336 335 333 331 330 330 331 330 329 329 328 329 326 326 327 327 327 327
312 313 313 313 319 329 329 328 330 332 332 333 333 334 335 335 334 332 331 330 330 328 327 327 327 326 326 326 325 326 326 327
313 312 312 313 320 328 328 327 326 329 331 330 332 335 334 335 334 333 331 330 329 328 328 327 326 325 323 324 323 322 324 325
311 313 315 314 324 327 329 326 328 326 327 329 332 335 336 335 334 333 332 329 329 327 327 325 326 325 325 326 321 320 314 319
310 313 318 321 326 329 328 326 324 325 325 325 326 328 332 334 334 333 331 329 327 328 326 326 327 325 321 323 323 318 311 311
309 319 325 327 329 330 328 326 327 324 323 323 324 327 329 332 332 331 329 328 328 327 326 325 325 324 321 319 321 320 318 317